Weather History for Lafayette, LA

Change the Weather History Date:

Saturday, March 23, 2013

  Actual Average Record
Temperature  
Mean Temperature 70 °F 64 °F  
Max Temperature 73 °F 74 °F 88 °F (1929)
Min Temperature 67 °F 53 °F 32 °F (1955)
Degree Days  
Heating Degree Days 0 4  
Month to date heating degree days 165 125  
Since 1 July heating degree days 1175 1355  
Cooling Degree Days 5 2  
Month to date cooling degree days 24 40  
Year to date cooling degree days 55 72  
Growing Degree Days 20 (Base 50)    
Moisture  
Dew Point 67 °F    
Average Humidity 92    
Maximum Humidity 100    
Minimum Humidity 84    
Precipitation  
Precipitation 0.03 in 0.11 in 2.59 in (1969)
Month to date precipitation 1.90 2.84  
Year to date precipitation 19.77 12.96  
Snow  
Snow 0.00 in 0.00 in 0.00 in ()
Month to date snowfall 0.0 0.0  
Since 1 July snowfall 0.0 T  
Snow Depth 0.00 in    
Sea Level Pressure  
Sea Level Pressure 29.69 in    
Wind  
Wind Speed 3 mph (East)    
Max Wind Speed 10 mph    
Max Gust Speed 14 mph    
Visibility 3 miles    
Events Fog , Rain    
T = Trace of Precipitation, MM = Missing Value Source: NWS Daily Summary

Daily Weather History Graph

Daily Weather History Graph

Search for Another Location

Airport:

Trip Planner

Search our weather history database for the weather conditions in past years. The results will help you decide how hot, cold, wet, or windy it might be!

Date:

Astronomy

Mar. 23, 2013 Rise Set
Actual Time 7:07 AM CDT 7:21 PM CDT
Civil Twilight 6:43 AM CDT 7:45 PM CDT
Nautical Twilight 6:15 AM CDT 8:13 PM CDT
Astronomical Twilight 5:47 AM CDT 8:41 PM CDT
Moon 4:01 PM CDT (3/23) 4:29 AM CDT (3/23)
Length of Visible Light 13h 01m
Length of Day
12h 13m
Waxing Gibbous, 85% of the Moon is Illuminated
Mar 23
Waxing Gibbous
Mar 27
Full
Apr 2
Last Quarter
Apr 10
New
Apr 18
First Quarter

Hourly Weather History & Observations

Time (CDT) Temp. Dew Point Humidity Pressure Visibility Wind Dir Wind Speed Gust Speed Precip Events Conditions
12:05 AM 69.8 °F 66.2 °F 88% 29.80 in 2.5 mi SSE 4.6 mph - N/A   Overcast
12:24 AM 69.8 °F 66.2 °F 88% 29.81 in 4.0 mi South 4.6 mph - N/A   Overcast
12:53 AM 69.1 °F 66.9 °F 93% 29.81 in 4.0 mi SSE 5.8 mph - N/A   Overcast
1:06 AM 69.8 °F 66.2 °F 88% 29.80 in 1.8 mi SSE 6.9 mph - N/A   Overcast
1:29 AM 69.8 °F 66.2 °F 88% 29.79 in 3.0 mi SSE 6.9 mph - N/A   Overcast
1:53 AM 69.1 °F 66.9 °F 93% 29.78 in 9.0 mi SSE 6.9 mph - N/A   Overcast
2:53 AM 68.0 °F 66.9 °F 96% 29.77 in 6.0 mi South 4.6 mph - N/A   Overcast
3:35 AM 68.0 °F 66.2 °F 94% 29.77 in 3.0 mi South 3.5 mph - N/A   Scattered Clouds
3:53 AM 68.0 °F 66.0 °F 93% 29.76 in 4.0 mi Calm Calm - N/A   Mostly Cloudy
4:53 AM 68.0 °F 66.0 °F 93% 29.73 in 3.0 mi Calm Calm - N/A   Overcast
5:01 AM 68.0 °F 66.2 °F 94% 29.73 in 2.5 mi Calm Calm - N/A   Overcast
5:14 AM 68.0 °F 66.2 °F 94% 29.72 in 3.0 mi Calm Calm - N/A   Overcast
5:24 AM 68.0 °F 66.2 °F 94% 29.72 in 1.8 mi ESE 4.6 mph - N/A   Overcast
5:53 AM 66.9 °F 66.0 °F 97% 29.71 in 2.0 mi ESE 4.6 mph - N/A   Overcast
6:02 AM 68.0 °F 66.2 °F 94% 29.71 in 3.0 mi Variable 3.5 mph - N/A   Overcast
6:28 AM 68.0 °F 66.2 °F 94% 29.71 in 4.0 mi Variable 3.5 mph - N/A   Overcast
6:53 AM 68.0 °F 66.0 °F 93% 29.72 in 4.0 mi Variable 3.5 mph - N/A   Overcast
7:28 AM 69.8 °F 66.2 °F 88% 29.73 in 2.5 mi Calm Calm - N/A   Overcast
7:53 AM 69.1 °F 66.9 °F 93% 29.74 in 3.0 mi SSE 3.5 mph - N/A   Overcast
8:53 AM 70.0 °F 68.0 °F 93% 29.77 in 4.0 mi Calm Calm - N/A   Overcast
9:41 AM 71.6 °F 68.0 °F 88% 29.78 in 2.5 mi East 3.5 mph - N/A   Overcast
9:49 AM 71.6 °F 68.0 °F 88% 29.79 in 3.0 mi Calm Calm - N/A   Overcast
9:53 AM 71.1 °F 68.0 °F 90% 29.79 in 4.0 mi Calm Calm - N/A   Overcast
10:04 AM 71.6 °F 68.0 °F 88% 29.78 in 4.0 mi Calm Calm - N/A   Overcast
10:53 AM 72.0 °F 68.0 °F 87% 29.77 in 5.0 mi NE 4.6 mph - N/A   Overcast
11:44 AM 71.6 °F 68.0 °F 88% 29.75 in 7.0 mi NE 6.9 mph - N/A   Overcast
11:53 AM 73.0 °F 68.0 °F 84% 29.74 in 7.0 mi NE 6.9 mph - N/A   Overcast
12:04 PM 71.6 °F 68.0 °F 88% 29.74 in 7.0 mi NE 6.9 mph - N/A   Overcast
12:53 PM 71.1 °F 66.9 °F 87% 29.71 in 7.0 mi NE 9.2 mph - N/A   Overcast
1:53 PM 70.0 °F 66.9 °F 90% 29.68 in 6.0 mi ENE 3.5 mph - N/A   Overcast
2:39 PM 69.8 °F 66.2 °F 88% 29.66 in 2.0 mi ENE 4.6 mph - 0.00 in Rain Light Rain
2:53 PM 69.1 °F 66.9 °F 93% 29.65 in 1.8 mi ENE 5.8 mph - 0.01 in Rain Light Rain
3:53 PM 69.1 °F 66.9 °F 93% 29.61 in 2.0 mi ENE 6.9 mph - 0.01 in   Overcast
4:08 PM 69.8 °F 66.2 °F 88% 29.61 in 3.0 mi ENE 5.8 mph - N/A   Overcast
4:53 PM 69.1 °F 66.9 °F 93% 29.60 in 4.0 mi NE 4.6 mph - 0.01 in   Overcast
5:10 PM 69.8 °F 66.2 °F 88% 29.59 in 2.5 mi ENE 3.5 mph - N/A   Overcast
5:28 PM 69.8 °F 66.2 °F 88% 29.59 in 1.8 mi ENE 3.5 mph - N/A   Overcast
5:53 PM 69.1 °F 66.9 °F 93% 29.58 in 1.2 mi East 3.5 mph - N/A   Overcast
6:45 PM 69.8 °F 66.2 °F 88% 29.58 in 2.0 mi Calm Calm - N/A   Overcast
6:53 PM 69.1 °F 66.9 °F 93% 29.57 in 2.0 mi Calm Calm - N/A   Overcast
7:13 PM 69.8 °F 66.2 °F 88% 29.57 in 1.5 mi Calm Calm - N/A   Overcast
7:30 PM 69.8 °F 66.2 °F 88% 29.58 in 2.5 mi Calm Calm - N/A   Overcast
7:53 PM 69.1 °F 66.9 °F 93% 29.58 in 2.0 mi Calm Calm - N/A   Overcast
8:45 PM 69.8 °F 68.0 °F 94% 29.59 in 1.5 mi Calm Calm - N/A   Overcast
8:53 PM 69.1 °F 68.0 °F 96% 29.60 in 1.8 mi Calm Calm - N/A   Overcast
9:45 PM 69.8 °F 68.0 °F 94% 29.61 in 0.5 mi Calm Calm - N/A Fog Fog
9:53 PM 69.1 °F 68.0 °F 96% 29.62 in 0.5 mi Calm Calm - N/A Fog Fog
10:19 PM 69.8 °F 68.0 °F 94% 29.62 in 1.0 mi Calm Calm - N/A   Mist
10:53 PM 69.1 °F 68.0 °F 96% 29.64 in 2.5 mi WSW 4.6 mph - N/A   Overcast
11:05 PM 69.8 °F 68.0 °F 94% 29.63 in 3.0 mi West 5.8 mph - N/A   Overcast
11:38 PM 69.8 °F 66.2 °F 88% 29.64 in 1.8 mi WNW 8.1 mph - N/A   Overcast
11:53 PM 69.1 °F 66.9 °F 93% 29.64 in 1.5 mi WNW 6.9 mph - N/A   Overcast